Hourly Data Report for October 16, 2017

All times are specified in Local Standard Time (LST). Add 1 hour to adjust for Daylight Saving Time where and when it is observed.

GRISE FIORD CLIMATE
NUNAVUT

76°25'22.040" N
82°54'08.020" W
44.50 m
2402351
71971
NGC

Download Data

Hourly Data (October 2017)
Hourly Data Report for October 16, 2017
Temp Definition
°C
Dew Point Temp Definition
°C
Rel Hum Definition
%
Wind Dir Definition
10's deg

Wind Spd Definition
km/h
Visibility Definition
km
Stn Press Definition
kPa
Hmdx Definition


Wind Chill Definition


Weather Definition


TIME
00:00 -12.6 -14.1 89 4 7   100.40   -17 LegendNANA
01:00 -12.4 -16.0 74 5 18   100.36   -20 LegendNANA
02:00 -12.8 -14.3 88 8 1   100.35   -13 LegendNANA
03:00 -12.2 -13.7 89 16 6   100.32   -16 LegendNANA
04:00 -11.6 -13.4 86 14 8   100.35   -16 LegendNANA
05:00 -11.7 -13.3 88 15 2   100.34   -13 LegendNANA
06:00 -11.7 -13.3 88 36 2   100.35   -13 LegendNANA
07:00 -11.3 -13.1 87 33 1   100.34   -12 LegendNANA
08:00 -11.7 -13.2 88 0 1   100.33   -12 LegendNANA
09:00 -11.0 -12.5 89 4 6   100.33   -15 LegendNANA
10:00 -10.8 -13.0 84 7 7   100.31   -15 LegendNANA
11:00 -11.5 -13.7 84 15 2   100.32   -13 LegendNANA
12:00 -11.3 -13.0 88 17 2   100.35   -13 LegendNANA
13:00 -11.5 -13.0 88 0 1   100.36   -12 LegendNANA
14:00 -11.8 -13.2 89 15 2   100.39   -13 LegendNANA
15:00 -12.7 -15.2 82 4 8   100.39   -18 LegendNANA
16:00 -14.0 -15.7 87 5 2   100.43   -15 LegendNANA
17:00 -14.3 -17.0 80 4 5   100.45   -18 LegendNANA
18:00 -13.2 -15.8 81 6 5   100.45   -17 LegendNANA
19:00 -15.6 -16.7 91 11 3   100.47   -18 LegendNANA
20:00 -16.0 -17.4 89 13 3   100.48   -18 LegendNANA
21:00 -15.1 -17.2 84 12 4   100.50   -18 LegendNANA
22:00 -15.7 -17.6 85 0 1   100.50   -16 LegendNANA
23:00 -14.9 -16.8 86 17 2   100.49   -16 LegendNANA

Notes on Data Quality.

Legend

  • E = Estimated
  • M = Missing
  • NA = Not Available
  • ‡ = Partner data that is not subject to review by the National Climate Archives
Date modified: